Miscellaneous Local Product
Issued by NWS Hastings, NE

Home | Current Version | Previous Version | Text Only | Print | Product List | Glossary On
Versions: 1 2 3 4 5 6 7 8 9 10 11 12 13 14 15 16 17 18 19 20 21 22 23 24 25 26 27 28 29 30 31 32 33 34 35 36 37 38 39 40 41 42 43 44 45 46 47 48 49 50
708
AXUS43 KGID 260202
MISGRI

GID CWA HOURLY WEATHER ROUNDUP
NATIONAL WEATHER SERVICE HASTINGS NE
900 PM CDT SUN JUN 25 2017

NOTE: "FAIR" INDICATES FEW OR NO CLOUDS BELOW 12,000 FEET WITH NO
SIGNIFICANT WEATHER AND/OR OBSTRUCTIONS TO VISIBILITY.

...SOUTH CENTRAL NEBRASKA...

CITY           SKY/WX    TMP DP  RH WIND       PRES   REMARKS
GRAND ISLAND   CLEAR     70  46  42 SW8       30.22F
HASTINGS       CLEAR     67  46  47 S7        30.25F
KEARNEY        CLOUDY    68  46  45 S12       30.24F
ORD            CLEAR     71  39  31 S8        30.18F
YORK           CLEAR     68  45  42 CALM      30.22F
AURORA         CLEAR     69  45  41 S7        30.22F
LEXINGTON      CLEAR     68  47  46 S10       30.23F
HOLDREGE       PTCLDY    63  48  58 SE5       30.24F
HEBRON         CLEAR     65  49  55 CALM      30.24S

...NEBRASKA PANHANDLE...

CITY           SKY/WX    TMP DP  RH WIND       PRES   REMARKS
CHADRON        MOCLDY    76  45  33 N3        30.17R
ALLIANCE       MOCLDY    70  44  39 S6        30.21S
SCOTTSBLUFF    CLEAR     73  46  38 E8        30.21S
SIDNEY         CLEAR     64  52  64 S12       30.28S

...WESTERN AND NORTH CENTRAL NEBRASKA...

CITY           SKY/WX    TMP DP  RH WIND       PRES   REMARKS
VALENTINE      PTCLDY    72  42  34 SE6       30.16F
AINSWORTH      PTCLDY    67  48  51 E5        30.18S
ONEILL         PTCLDY    68  42  39 SE6       30.18F
BROKEN BOW     CLEAR     70  47  43 S13       30.20F
IMPERIAL       CLEAR     63  52  67 S8        30.26F
NORTH PLATTE   CLEAR     68  47  46 S10       30.22S
MCCOOK         MOCLDY    64  54  69 S3        30.26S

...EASTERN NEBRASKA...

CITY           SKY/WX    TMP DP  RH WIND       PRES   REMARKS
NORFOLK        CLEAR     63  45  51 SE8       30.18F
SO SIOUX CITY  CLEAR     66  45  46 CALM      30.18F
TEKAMAH        CLEAR     68  41  37 E3        30.20F
COLUMBUS       CLEAR     70  44  39 SE3       30.21F
ALBION         PTCLDY    69  38  31 E5        30.19F
OMAHA EPPLEY   PTCLDY    72  44  36 CALM      30.21S
OFFUTT AFB     CLEAR     64  53  67 CALM      30.21S
MILLARD        CLEAR     73  43  34 CALM      30.22S
LINCOLN        CLEAR     69  46  43 NE5       30.22S
NEBRASKA CITY  CLEAR     69  48  47 CALM      30.23S
BEATRICE       CLEAR     68  52  56 SW6       30.23S
FALLS CITY     CLEAR     68  51  54 S7        30.21S

...NORTHERN KANSAS...

CITY           SKY/WX    TMP DP  RH WIND       PRES   REMARKS
GOODLAND       CLOUDY    61  59  93 SE9       30.27R
HILL CITY      CLOUDY    60  58  92 E7        30.25F
NORTON         CLOUDY    63  52  67 E3        30.24F
PHILLIPSBURG   CLOUDY    66  54  63 SE3       30.25S
SMITH CENTER   CLEAR     64  50  59 E5        30.25S
HAYS           PTCLDY    59  55  87 SE9       30.23F
RUSSELL        CLOUDY    59  55  87 SE9       30.22F
CONCORDIA      CLEAR     64  55  72 S3        30.24F
SALINA         CLOUDY    66  56  70 SE3       30.25S
TOPEKA         PTCLDY    63  56  78 CALM      30.23F



USA.gov is the U.S. government's official web portal to all federal, state and local government web resources and services.